Location: Al Mulaqqa?ah
(24.1833°N, 32.8833°E)
Time: 07:58:44
(UTC+00:00)

Geosat - Pass Details

Date: 26 September 2021
Orbit: 763 x 765 km, 108.0° (Epoch: 15 October)

Event Time Altitude Azimuth Distance (km) Brightness Sun altitude
Rises 15:53:10 0° 31° (NNE) 3,228 6.9 -3.7°
Reaches altitude 10° 15:55:32 10° 37° (NE) 2,300 6.1 -4.2°
Maximum altitude 16:00:21 47° 111° (ESE) 1,002 4.3 -5.3°
Drops below altitude 10° 16:05:08 10° 184° (S) 2,290 6.5 -6.4°
Sets 16:07:29 0° 190° (S) 3,213 7.3 -7.0°
